This demonstration page uses our WeatherBlox Daily Observations layout. Learn more.

Left ArrowRight Arrow

36.17497, -115.13722

Hourly Observations for August 15, 2017

Temp ( °F °C ) Dew Point ( °F °C ) Humidity (%) Winds ( mph kmh ) Pressure ( in mb ) Visibility ( mi km ) Precip ( " mm )
12:53 am 00:53 Clear 85 29.4 36 2.2 17 17 SSW 17 28 29.63 1003 10 16.0934 N/A
1:53 am 01:53 Clear 84 28.9 37 2.8 19 19 SSW 21 33 29.62 1003 10 16.0934 N/A
2:53 am 02:53 Clear 83 28.3 38 3.3 20 20 SSW 14 22 29.63 1004 10 16.0934 N/A
3:53 am 03:53 Clear 82 27.8 40 4.4 22 22 SSW 13 20 29.63 1003 10 16.0934 N/A
4:53 am 04:53 Clear 81 27.2 41 5 24 24 SSW 10 17 29.65 1004 10 16.0934 N/A
5:53 am 05:53 Clear 80 26.7 44 6.7 28 28 SSW 13 20 29.66 1004 10 16.0934 N/A
6:53 am 06:53 Sunny 79 26.1 45 7.2 30 30 S 9 15 29.69 1005 10 16.0934 N/A
7:53 am 07:53 Sunny 80 26.7 45 7.2 29 29 ESE 8 13 29.71 1006 10 16.0934 N/A
8:53 am 08:53 Sunny 83 28.3 44 6.7 25 25 ENE 10 17 29.73 1007 10 16.0934 N/A
9:53 am 09:53 Sunny 84 28.9 44 6.7 25 25 ENE 7 11 29.75 1007 10 16.0934 N/A
10:53 am 10:53 Sunny 88 31.1 44 6.7 22 22 E 15 24 29.75 1007 10 16.0934 N/A
11:53 am 11:53 Sunny 88 31.1 43 6.1 21 21 E 10 17 29.75 1008 10 16.0934 N/A
12:53 pm 12:53 Sunny 90 32.2 43 6.1 19 19 undefined N/A 29.74 1007 10 16.0934 N/A
1:53 pm 13:53 Sunny 92 33.3 42 5.6 18 18 VRB 6 9 29.73 1007 10 16.0934 N/A
2:53 pm 14:53 Sunny 92 33.3 42 5.6 18 18 N N/A 29.72 1006 10 16.0934 N/A
3:53 pm 15:53 Sunny 93 33.9 41 5 16 16 N N/A 29.7 1006 10 16.0934 N/A
4:53 pm 16:53 Sunny 95 35 40 4.4 15 15 VRB 6 9 29.7 1006 10 16.0934 N/A
5:53 pm 17:53 Sunny 94 34.4 39 3.9 15 15 SSE 9 15 29.7 1006 10 16.0934 N/A
6:53 pm 18:53 Sunny 94 34.4 30 -1.1 10 10 SSE 17 28 29.7 1006 10 16.0934 N/A
7:53 pm 19:53 Clear 91 32.8 27 -2.8 10 10 SE 14 22 29.71 1006 10 16.0934 N/A
8:53 pm 20:53 Clear 89 31.7 27 -2.8 11 11 SE 12 19 29.73 1007 10 16.0934 N/A
9:53 pm 21:53 Clear 88 31.1 28 -2.2 11 11 ESE 10 17 29.75 1007 10 16.0934 N/A
10:53 pm 22:53 Clear 85 29.4 29 -1.7 13 13 E 8 13 29.75 1008 10 16.0934 N/A
11:53 pm 23:53 Clear 83 28.3 32 undefined 16 16 SSE 3 6 29.76 1008 10 16.0934 N/A

Powered by AerisWeather